TimeEDT,TemperatureF,Dew PointF,Humidity,Sea Level PressureIn,VisibilityMPH,Wind Direction,Wind SpeedMPH,Gust SpeedMPH,PrecipitationIn,Events,Conditions,WindDirDegrees,DateUTC
12:53 AM,73.0,64.0,73,30.12,8.0,ENE,13.8,19.6,0.00,Rain,Light Rain,60,2011-11-03 04:53:00
1:53 AM,72.0,64.9,78,30.11,10.0,ENE,5.8,-,0.04,,Overcast,70,2011-11-03 05:53:00
2:53 AM,72.0,64.0,76,30.09,10.0,East,4.6,-,N/A,,Overcast,90,2011-11-03 06:53:00
3:53 AM,72.0,64.0,76,30.08,10.0,Calm,Calm,-,N/A,,Mostly Cloudy,0,2011-11-03 07:53:00
4:53 AM,71.6,62.6,73,30.08,10.0,ENE,3.5,-,N/A,,Overcast,70,2011-11-03 08:53:00
5:53 AM,72.0,64.0,76,30.09,10.0,East,3.5,-,N/A,,Overcast,80,2011-11-03 09:53:00
6:53 AM,70.0,66.0,87,30.09,10.0,Calm,Calm,-,0.00,Rain,Light Rain,0,2011-11-03 10:53:00
7:53 AM,70.0,66.9,90,30.10,10.0,Calm,Calm,-,0.00,,Overcast,0,2011-11-03 11:53:00
8:53 AM,72.0,66.9,84,30.11,10.0,NNW,3.5,-,0.00,,Overcast,340,2011-11-03 12:53:00
9:53 AM,75.9,63.0,64,30.11,10.0,Calm,Calm,-,N/A,,Overcast,0,2011-11-03 13:53:00
10:53 AM,75.9,61.0,60,30.12,10.0,East,6.9,-,N/A,,Overcast,90,2011-11-03 14:53:00
11:53 AM,78.1,60.1,54,30.11,10.0,East,8.1,-,N/A,,Overcast,80,2011-11-03 15:53:00
12:53 PM,80.1,59.0,48,30.09,10.0,ENE,6.9,-,N/A,,Overcast,60,2011-11-03 16:53:00
1:53 PM,80.1,59.0,48,30.05,10.0,East,9.2,-,N/A,,Overcast,100,2011-11-03 17:53:00
2:53 PM,79.0,57.9,48,30.03,10.0,ENE,6.9,-,N/A,,Overcast,70,2011-11-03 18:53:00
3:53 PM,78.1,57.9,50,30.02,10.0,East,5.8,-,N/A,,Overcast,80,2011-11-03 19:53:00
4:53 PM,78.1,59.0,52,30.01,10.0,NE,8.1,-,N/A,,Scattered Clouds,50,2011-11-03 20:53:00
5:53 PM,75.9,61.0,60,29.99,10.0,East,8.1,-,N/A,,Clear,80,2011-11-03 21:53:00
6:53 PM,73.0,62.1,68,29.99,10.0,Calm,Calm,-,N/A,,Clear,0,2011-11-03 22:53:00
7:53 PM,68.0,62.1,81,29.99,10.0,East,3.5,-,N/A,,Clear,80,2011-11-03 23:53:00
8:53 PM,66.9,62.1,84,29.99,10.0,Calm,Calm,-,N/A,,Clear,0,2011-11-04 00:53:00
9:53 PM,66.2,62.6,88,30.00,10.0,Calm,Calm,-,N/A,,Clear,0,2011-11-04 01:53:00
10:53 PM,63.0,60.1,90,29.99,10.0,Calm,Calm,-,N/A,,Clear,0,2011-11-04 02:53:00
11:53 PM,64.0,61.0,90,29.98,10.0,West,4.6,-,N/A,,Clear,260,2011-11-04 03:53:00